Weather History for KVTN - October, 2011

Change the Weather History Date:

Sunday, October 16, 2011

  Actual Average Record
Temperature  
Mean Temperature 46 °F 48 °F  
Max Temperature 57 °F 63 °F 93 °F (1991)
Min Temperature 34 °F 34 °F 14 °F (2001)
Degree Days  
Heating Degree Days 19 17  
Month to date heating degree days 129 221  
Since 1 July heating degree days 313 406  
Cooling Degree Days 0 0  
Month to date cooling degree days 21 1  
Year to date cooling degree days 912 818  
Moisture  
Dew Point 31 °F    
Average Humidity 59    
Maximum Humidity 92    
Minimum Humidity 25    
Precipitation  
Precipitation 0.00 in 0.04 in 0.82 in (1916)
Month to date precipitation 1.55 0.73  
Year to date precipitation 21.19 18.48  
Snow  
Snow 0.00 in 0.00 in 0.10 in (1925)
Month to date snowfall 0.0 0.5  
Since 1 July snowfall 0.0 1.2  
Since 1 September snowfall 0.0 1.2  
Snow Depth 0.00 in    
Sea Level Pressure  
Sea Level Pressure 30.09 in    
Wind  
Wind Speed 7 mph (NW)    
Max Wind Speed 18 mph    
Max Gust Speed 26 mph    
Visibility 10 miles    
Events      
T = Trace of Precipitation, MM = Missing Value Source: NWS Daily Summary

Daily Weather History Graph

Daily Weather History Graph

Search for Another Location

Airport or City:

Trip Planner

Search our weather history database for the weather conditions in past years. The results will help you decide how hot, cold, wet, or windy it might be!

Date:

Astronomy

Oct. 16, 2011 Rise Set
Actual Time 7:56 AM CDT 6:58 PM CDT
Civil Twilight 7:27 AM CDT 7:26 PM CDT
Nautical Twilight 6:55 AM CDT 7:59 PM CDT
Astronomical Twilight 6:22 AM CDT 8:32 PM CDT
Moon 9:39 PM CDT (10/16) 12:21 PM CDT (10/16)
Length of Visible Light 11h 59m
Length of Day
11h 01m
Waning Gibbous, 82% of the Moon is Illuminated
Oct 16
Waning Gibbous
Oct 19
Last Quarter
Oct 26
New
Nov 2
First Quarter
Nov 10
Full

Hourly Weather History & Observations

Time (CDT) Temp. Windchill Dew Point Humidity Pressure Visibility Wind Dir Wind Speed Gust Speed Precip Events Conditions
12:52 AM 44.6 °F 39.7 °F 35.6 °F 71% 29.98 in 10.0 mi NNW 9.2 mph - N/A   Clear
1:52 AM 45.0 °F 38.5 °F 35.1 °F 68% 30.01 in 10.0 mi NNW 13.8 mph - N/A   Clear
2:52 AM 44.1 °F 39.0 °F 36.0 °F 73% 30.03 in 10.0 mi NNW 9.2 mph - N/A   Clear
3:52 AM 42.1 °F 35.2 °F 36.0 °F 79% 30.04 in 10.0 mi NNW 12.7 mph - N/A   Clear
4:52 AM 43.0 °F 37.7 °F 37.0 °F 80% 30.05 in 10.0 mi NNW 9.2 mph - N/A   Mostly Cloudy
5:52 AM 41.0 °F 35.8 °F 37.4 °F 87% 30.09 in 10.0 mi WNW 8.1 mph - N/A   Scattered Clouds
6:52 AM 43.0 °F 36.0 °F 37.9 °F 82% 30.09 in 10.0 mi NNW 13.8 mph - N/A   Partly Cloudy
7:52 AM 39.9 °F 34.5 °F 36.0 °F 86% 30.12 in 10.0 mi WNW 8.1 mph - N/A   Clear
8:52 AM 39.9 °F 33.9 °F 37.0 °F 89% 30.15 in 10.0 mi WNW 9.2 mph - N/A   Clear
9:52 AM 46.0 °F 41.0 °F 37.9 °F 73% 30.17 in 10.0 mi WNW 10.4 mph - N/A   Clear
10:52 AM 51.1 °F - 37.0 °F 59% 30.18 in 10.0 mi NW 13.8 mph 23.0 mph N/A   Clear
11:52 AM 53.6 °F - 33.8 °F 47% 30.16 in 10.0 mi NNW 10.4 mph 18.4 mph N/A   Partly Cloudy
12:52 PM 54.0 °F - 27.0 °F 35% 30.17 in 10.0 mi NNW 10.4 mph - N/A   Clear
1:52 PM 55.0 °F - 26.1 °F 33% 30.14 in 10.0 mi NW 11.5 mph - N/A   Clear
2:52 PM 55.0 °F - 24.1 °F 30% 30.12 in 10.0 mi Variable 3.5 mph - N/A   Clear
3:52 PM 57.0 °F - 24.1 °F 28% 30.10 in 10.0 mi WNW 10.4 mph - N/A   Clear
4:52 PM 57.0 °F - 23.0 °F 27% 30.09 in 10.0 mi Variable 6.9 mph - N/A   Clear
5:52 PM 53.1 °F - 24.1 °F 32% 30.09 in 10.0 mi NNW 5.8 mph - N/A   Partly Cloudy
6:52 PM 50.0 °F - 24.8 °F 37% 30.05 in 10.0 mi NNW 3.5 mph - N/A   Clear
7:52 PM 45.0 °F 43.5 °F 27.0 °F 49% 30.09 in 10.0 mi NNE 3.5 mph - N/A   Clear
8:52 PM 37.9 °F - 30.0 °F 73% 30.10 in 10.0 mi Calm Calm - N/A   Clear
9:52 PM 36.0 °F - 28.9 °F 76% 30.09 in 10.0 mi Calm Calm - N/A   Clear
10:52 PM 36.0 °F - 28.9 °F 76% 30.09 in 10.0 mi Calm Calm - N/A   Clear
11:52 PM 36.0 °F - 30.9 °F 82% 30.06 in 9.0 mi Calm Calm - N/A   Clear